Regional Weather Roundup
Issued by NWS

Home | Current Version | Previous Version | Text Only | Print | Product List | Glossary Off
Versions: 1 2 3 4 5 6 7 8 9 10 11 12 13 14 15 16 17 18 19 20 21 22 23 24 25 26 27 28 29 30 31 32 33 34 35 36 37 38 39 40 41 42 43 44 45 46 47 48 49 50

000
ASUS43 KOAX 210810
RWRNE

WEATHER ROUNDUP FOR NEBRASKA
NATIONAL WEATHER SERVICE OMAHA NE
300 AM CDT MON MAY 21 2018

NOTES: SATELLITE DATA IS BEING USED TO AUGMENT CLOUD COVER ABOVE
       12000 FEET.
       "FAIR" INDICATES FEW OR NO CLOUDS BELOW 12,000 FEET WITH NO
       SIGNIFICANT WEATHER AND/OR OBSTRUCTIONS TO VISIBILITY.


NEZ001>004-019>022-054>056-210900-
NEBRASKA PANHANDLE

CITY           SKY/WX    TMP DP  RH WIND       PRES   REMARKS
SCOTTSBLUFF    PTCLDY    47  46  97 E8        30.06F
ALLIANCE       CLEAR     41  41 100 SE8       30.06S
CHADRON        CLEAR     41  39  93 CALM      30.04F
GORDON         FAIR      44  38  81 E3        30.05F
KIMBALL        FOG       45  44  99 S9        30.08F VSB 1/2
SIDNEY         CLEAR     44  43  96 S8        30.09F
$$

NEZ057>060-069>072-079>082-210900-
SOUTHWEST NEBRASKA

CITY           SKY/WX    TMP DP  RH WIND       PRES   REMARKS
NORTH PLATTE   CLOUDY    52  51  97 SW9       30.11S FOG
IMPERIAL       PTCLDY    46  45  96 S5        30.10F
LEXINGTON      PTCLDY    47  46  97 W5        30.10R FOG
MCCOOK         PTCLDY    49  48  97 SW7       30.10F
OGALLALA       CLEAR     47  45  92 CALM      30.10S
$$

NEZ005>010-023>029-035>040-094-210900-
NORTH CENTRAL NEBRASKA

CITY           SKY/WX    TMP DP  RH WIND       PRES   REMARKS
VALENTINE      MOCLDY    50  47  89 SW3       30.06F
AINSWORTH      MOCLDY    47  47  98 SW3       30.07F
BROKEN BOW     FOG       46  45  96 CALM      30.08S VSB 3/4
O`NEILL        CLOUDY    55  52  92 CALM      30.06F
ORD            CLEAR     46  46 100 SW3       30.06  FOG
THEDFORD       PTCLDY    45  44  97 SW5       30.08F FOG
$$

NEZ041-046>049-061>064-073>077-083>087-210900-
SOUTH CENTRAL NEBRASKA

CITY           SKY/WX    TMP DP  RH WIND       PRES   REMARKS
GRAND ISLAND   FOG       45  45 100 CALM      30.08S VSB 1/4
AURORA         FOG       50  50 100 CALM      30.07F VSB 1/4
HASTINGS       FOG       50  50 100 SW5       30.09S VSB 1/4
HEBRON         CLOUDY    54  52  91 CALM      30.07F
HOLDREGE       FOG       46  46 100 SW6       30.10R VSB 1/2
KEARNEY        FOG       48  48 100 SW6       30.10  VSB 1
YORK           CLOUDY    54  54 100 NW5       30.07F
$$

NEZ011>018-030>034-042>045-210900-
NORTHEAST NEBRASKA

CITY           SKY/WX    TMP DP  RH WIND       PRES   REMARKS
NORFOLK        CLOUDY    52  52 100 W7        30.06F FOG
ALBION         CLOUDY    53  51  95 CALM      30.07F
BLAIR          FOG       56  55  98 NW3       30.04F VSB 1
COLUMBUS       CLOUDY    53  51  93 W7        30.07F
FREMONT        CLOUDY    55  55  99 W5        30.06S FOG
TEKAMAH        LGT RAIN  56  56 100 NW7       30.04S FOG
WAYNE          CLOUDY    53  52  96 N3        30.06S FOG
$$

NEZ050>053-065>068-078-088>093-210900-
SOUTHEAST NEBRASKA

CITY           SKY/WX    TMP DP  RH WIND       PRES   REMARKS
LINCOLN        CLOUDY    54  52  93 N5        30.06F
OMAHA EPPLEY   CLOUDY    58  56  93 NW5       30.04F FOG
BEATRICE       CLOUDY    55  54  97 NW6       30.06F FOG
FALLS CITY     CLOUDY    58  54  86 NW7       30.02F
NEBRASKA CITY  CLOUDY    56  56 100 NW8       30.04F FOG
PLATTSMOUTH    RAIN      56  55  98 W8        30.04F
$$

NEZ044-045-051>053-067-210900-
OMAHA AREA

CITY           SKY/WX    TMP DP  RH WIND       PRES   REMARKS
OMAHA EPPLEY   CLOUDY    58  56  93 NW5       30.04F FOG
BLAIR          FOG       56  55  98 NW3       30.04F VSB 1
FREMONT        CLOUDY    55  55  99 W5        30.06S FOG
MILLARD        CLOUDY    57  55  95 NW5       30.04F FOG
OFFUTT AFB     CLOUDY    56  56 100 W7        30.03F FOG
PLATTSMOUTH    RAIN      56  55  98 W8        30.04F
WAHOO          CLOUDY    55  53  92 NW6       30.05F FOG
$$




USA.gov is the U.S. government's official web portal to all federal, state and local government web resources and services.